Weather History for King Salmon, AK

Change the Weather History Date:

Saturday, March 1, 2014

  Actual Average Record
Temperature  
Mean Temperature 36 °F 21 °F  
Max Temperature 52 °F 30 °F 52 °F (2014)
Min Temperature 20 °F 13 °F -34 °F (1956)
Degree Days  
Heating Degree Days 29 44  
Month to date heating degree days 29 44  
Since 1 July heating degree days 6384 7662  
Cooling Degree Days 0    
Month to date cooling degree days 0  
Year to date cooling degree days 0  
Moisture  
Dew Point 23 °F    
Average Humidity 0    
Maximum Humidity 0    
Minimum Humidity 0    
Precipitation  
Precipitation 0.00 in 0.02 in 0.32 in (1967)
Month to date precipitation 0.00 0.02  
Year to date precipitation 1.81 1.80  
Snow  
Snow 0.00 in 0.20 in 2.20 in (2010)
Month to date snowfall 0.0 0.2  
Since 1 July snowfall 26.7 35.7  
Snow Depth 0.00 in    
Sea Level Pressure  
Sea Level Pressure 29.87 in    
Wind  
Wind Speed 4 mph (NNE)    
Max Wind Speed 9 mph    
Max Gust Speed 12 mph    
Visibility 10 miles    
Events      
T = Trace of Precipitation, MM = Missing Value Source: NWS Daily Summary

Daily Weather History Graph

Daily Weather History Graph

Search for Another Location

Airport:

Trip Planner

Search our weather history database for the weather conditions in past years. The results will help you decide how hot, cold, wet, or windy it might be!

Date:

Astronomy

Mar. 01, 2014 Rise Set
Actual Time 8:21 AM AKST 6:57 PM AKST
Civil Twilight 7:41 AM AKST 7:37 PM AKST
Nautical Twilight 6:55 AM AKST 8:23 PM AKST
Astronomical Twilight 6:08 AM AKST 9:10 PM AKST
Moon 8:07 AM AKST (3/1) 8:19 PM AKST (3/1)
Length of Visible Light 11h 55m
Length of Day
10h 35m
New Moon, 0% of the Moon is Illuminated
Mar 1
New Moon
Mar 8
First Quarter
Mar 16
Full
Mar 23
Last Quarter
Mar 30
New

Hourly Weather History & Observations

Time (AKST) Temp. Windchill Dew Point Humidity Pressure Visibility Wind Dir Wind Speed Gust Speed Precip Events Conditions
12:54 AM 26.4 °F 20.9 °F 25.3 °F 96% 29.95 in 10.0 mi North 4.6 mph - N/A   Partly Cloudy
1:54 AM 26.1 °F 19.4 °F 24.1 °F 92% 29.95 in 10.0 mi NNE 5.8 mph - N/A   Clear
2:54 AM 22.1 °F 17.4 °F 21.4 °F 97% 29.94 in 10.0 mi North 3.5 mph - N/A   Clear
3:54 AM 20.3 °F - 19.2 °F 96% 29.94 in 10.0 mi Calm Calm - N/A   Clear
4:54 AM 21.7 °F - 20.8 °F 96% 29.93 in 10.0 mi Calm Calm - N/A   Clear
5:54 AM 21.7 °F 17.0 °F 20.7 °F 96% 29.92 in 10.0 mi NNE 3.5 mph - N/A   Clear
6:54 AM 23.0 °F 18.4 °F 21.4 °F 94% 29.91 in 10.0 mi North 3.5 mph - N/A   Overcast
7:54 AM 23.7 °F - 22.3 °F 94% 29.90 in 10.0 mi Calm Calm - N/A   Mostly Cloudy
8:54 AM 26.1 °F 21.9 °F 23.9 °F 92% 29.90 in 10.0 mi NNE 3.5 mph - N/A   Mostly Cloudy
9:54 AM 28.0 °F - 25.0 °F 88% 29.89 in 10.0 mi Calm Calm - N/A   Mostly Cloudy
10:54 AM 32.2 °F - 27.0 °F 81% 29.89 in 10.0 mi Calm Calm - N/A   Mostly Cloudy
11:54 AM 39.7 °F 37.6 °F 29.1 °F 66% 29.88 in 10.0 mi North 3.5 mph - N/A   Mostly Cloudy
12:54 PM 45.3 °F - 27.3 °F 49% 29.87 in 10.0 mi Calm Calm - N/A   Mostly Cloudy
1:54 PM 48.2 °F - 27.3 °F 44% 29.86 in 10.0 mi Variable 3.5 mph - N/A   Mostly Cloudy
2:54 PM 50.0 °F - 26.1 °F 39% 29.84 in 10.0 mi NE 5.8 mph - N/A   Mostly Cloudy
3:54 PM 51.6 °F - 23.5 °F 33% 29.83 in 10.0 mi East 6.9 mph - N/A   Mostly Cloudy
4:54 PM 49.6 °F - 31.1 °F 49% 29.82 in 10.0 mi ENE 4.6 mph - N/A   Mostly Cloudy
5:54 PM 48.4 °F - 20.1 °F 33% 29.82 in 10.0 mi NE 4.6 mph - N/A   Scattered Clouds
6:54 PM 42.3 °F 37.9 °F 18.0 °F 38% 29.81 in 10.0 mi NE 6.9 mph - N/A   Scattered Clouds
7:54 PM 36.0 °F 29.6 °F 25.9 °F 67% 29.82 in 10.0 mi NE 8.1 mph - N/A   Scattered Clouds
8:54 PM 35.1 °F 28.6 °F 21.0 °F 57% 29.81 in 10.0 mi East 8.1 mph - N/A   Partly Cloudy
9:54 PM 32.5 °F 26.2 °F 22.1 °F 65% 29.82 in 10.0 mi North 6.9 mph - N/A   Partly Cloudy
10:54 PM 27.7 °F 21.3 °F 22.1 °F 80% 29.82 in 10.0 mi NNE 5.8 mph - N/A   Partly Cloudy
11:54 PM 25.5 °F - 21.0 °F 83% 29.82 in 10.0 mi Calm Calm - N/A   Clear